| time (UTC) | temp F | wind direction | speed MPH | gust MPH | rain 1hr in | rain 24hr in | rain mn in | humidity % | barometer mb |
| 20260506023521 | 66 | 281 | 4.0 | 8.0 | 0.00 | 0.20 | 0.15 | 36 | 1013.6 |
| 20260506022544 | 67 | 282 | 6.0 | 11.0 | 0.00 | 0.20 | 0.15 | 36 | 1013.4 |
| 20260506021525 | 67 | 280 | 6.0 | 8.0 | 0.00 | 0.20 | 0.15 | 35 | 1013.1 |
| 20260506020531 | 68 | 271 | 5.0 | 9.0 | 0.00 | 0.20 | 0.15 | 34 | 1012.9 |
| 20260506015528 | 69 | 279 | 6.0 | 9.0 | 0.00 | 0.20 | 0.15 | 32 | 1012.8 |
| 20260506014529 | 70 | 262 | 6.0 | 11.0 | 0.00 | 0.20 | 0.15 | 28 | 1012.7 |
| 20260506013542 | 71 | 265 | 8.0 | 14.0 | 0.00 | 0.20 | 0.15 | 28 | 1012.6 |
| 20260506012532 | 72 | 268 | 5.0 | 8.0 | 0.00 | 0.20 | 0.15 | 28 | 1012.5 |
| 20260506011527 | 72 | 251 | 4.0 | 9.0 | 0.00 | 0.20 | 0.15 | 31 | 1012.4 |
| 20260506010524 | 72 | 238 | 4.0 | 9.0 | 0.00 | 0.20 | 0.15 | 31 | 1012.3 |
| 20260506005525 | 72 | 224 | 4.0 | 11.0 | 0.00 | 0.20 | 0.15 | 30 | 1012.2 |
| 20260506004529 | 72 | 274 | 4.0 | 6.0 | 0.00 | 0.20 | 0.15 | 30 | 1012.1 |
| 20260506003532 | 74 | 213 | 4.0 | 9.0 | 0.00 | 0.20 | 0.15 | 28 | 1012.2 |
| 20260506002531 | 75 | 249 | 3.0 | 9.0 | 0.00 | 0.20 | 0.15 | 26 | 1012.1 |
| 20260506001541 | 75 | 265 | 7.0 | 13.0 | 0.00 | 0.20 | 0.15 | 25 | 1012.1 |
| 20260506000525 | 75 | 226 | 4.0 | 9.0 | 0.00 | 0.20 | 0.15 | 26 | 1012.0 |
| 20260505235528 | 76 | 224 | 3.0 | 7.0 | 0.00 | 0.20 | 0.15 | 24 | 1011.9 |
| 20260505234528 | 77 | 269 | 6.0 | 17.0 | 0.00 | 0.20 | 0.15 | 24 | 1011.9 |
| 20260505233527 | 77 | 242 | 4.0 | 10.0 | 0.00 | 0.20 | 0.15 | 24 | 1011.8 |
| 20260505232551 | 77 | 270 | 8.0 | 15.0 | 0.00 | 0.20 | 0.15 | 23 | 1011.8 |
| 20260505231532 | 77 | 247 | 6.0 | 14.0 | 0.00 | 0.20 | 0.15 | 23 | 1011.8 |
| 20260505230524 | 77 | 186 | 5.0 | 10.0 | 0.00 | 0.20 | 0.15 | 22 | 1011.8 |
| 20260505225523 | 77 | 303 | 8.0 | 15.0 | 0.00 | 0.20 | 0.15 | 25 | 1011.8 |
| 20260505224524 | 78 | 234 | 4.0 | 10.0 | 0.00 | 0.20 | 0.15 | 26 | 1011.9 |
| 20260505223528 | 77 | 214 | 5.0 | 16.0 | 0.00 | 0.20 | 0.15 | 27 | 1011.9 |
| 20260505222527 | 77 | 230 | 6.0 | 11.0 | 0.00 | 0.20 | 0.15 | 28 | 1012.0 |
| 20260505221550 | 78 | 299 | 7.0 | 16.0 | 0.00 | 0.20 | 0.15 | 28 | 1012.1 |
| 20260505220530 | 78 | 237 | 8.0 | 16.0 | 0.00 | 0.20 | 0.15 | 28 | 1012.1 |
| 20260505215523 | 75 | 233 | 5.0 | 10.0 | 0.00 | 0.20 | 0.15 | 31 | 1012.2 |
| 20260505214526 | 77 | 241 | 6.0 | 16.0 | 0.00 | 0.20 | 0.15 | 31 | 1012.3 |
| 20260505213545 | 77 | 249 | 5.0 | 13.0 | 0.00 | 0.20 | 0.15 | 31 | 1012.4 |
| 20260505212526 | 76 | 268 | 5.0 | 11.0 | 0.00 | 0.20 | 0.15 | 32 | 1012.5 |
| 20260505211527 | 77 | 230 | 6.0 | 12.0 | 0.00 | 0.20 | 0.15 | 32 | 1012.5 |
| 20260505210531 | 76 | 195 | 4.0 | 9.0 | 0.00 | 0.20 | 0.15 | 32 | 1012.7 |
| 20260505205530 | 78 | 210 | 5.0 | 13.0 | 0.00 | 0.20 | 0.15 | 31 | 1012.8 |
| 20260505204521 | 79 | 220 | 3.0 | 7.0 | 0.00 | 0.20 | 0.15 | 32 | 1012.9 |
| 20260505203523 | 77 | 231 | 5.0 | 11.0 | 0.00 | 0.20 | 0.15 | 33 | 1012.9 |
| 20260505202524 | 76 | 204 | 4.0 | 6.0 | 0.00 | 0.20 | 0.15 | 35 | 1013.1 |
| 20260505201527 | 76 | 238 | 5.0 | 13.0 | 0.00 | 0.20 | 0.15 | 37 | 1013.1 |
| 20260505200527 | 74 | 231 | 6.0 | 10.0 | 0.00 | 0.20 | 0.15 | 38 | 1013.3 |
| 20260505195531 | 76 | 276 | 6.0 | 14.0 | 0.00 | 0.20 | 0.15 | 36 | 1013.3 |
| 20260505194531 | 76 | 213 | 3.0 | 6.0 | 0.00 | 0.20 | 0.15 | 34 | 1013.3 |
| 20260505193534 | 78 | 235 | 4.0 | 11.0 | 0.00 | 0.20 | 0.15 | 34 | 1013.2 |
| 20260505192523 | 76 | 254 | 4.0 | 12.0 | 0.00 | 0.20 | 0.15 | 40 | 1013.4 |
| 20260505191524 | 73 | 306 | 4.0 | 7.0 | 0.00 | 0.20 | 0.15 | 47 | 1013.4 |
| 20260505190528 | 73 | 283 | 4.0 | 11.0 | 0.00 | 0.20 | 0.15 | 46 | 1013.6 |
| 20260505185530 | 73 | 304 | 5.0 | 9.0 | 0.00 | 0.20 | 0.15 | 47 | 1013.8 |
| 20260505184531 | 74 | 298 | 3.0 | 7.0 | 0.00 | 0.20 | 0.15 | 47 | 1013.9 |
| 20260505183552 | 73 | 272 | 4.0 | 7.0 | 0.00 | 0.20 | 0.15 | 48 | 1014.0 |
| 20260505182521 | 73 | 285 | 4.0 | 10.0 | 0.00 | 0.20 | 0.15 | 48 | 1014.1 |
| 20260505181523 | 71 | 315 | 1.0 | 4.0 | 0.00 | 0.20 | 0.15 | 50 | 1014.3 |
| 20260505180527 | 72 | 3 | 1.0 | 3.0 | 0.00 | 0.20 | 0.15 | 50 | 1014.4 |
| 20260505175528 | 71 | 306 | 3.0 | 6.0 | 0.00 | 0.20 | 0.15 | 52 | 1014.5 |
| 20260505174610 | 70 | 327 | 2.0 | 3.0 | 0.00 | 0.20 | 0.15 | 52 | 1014.5 |
| 20260505173529 | 71 | 311 | 2.0 | 4.0 | 0.00 | 0.20 | 0.15 | 52 | 1014.5 |
| 20260505172530 | 69 | 302 | 3.0 | 4.0 | 0.00 | 0.20 | 0.15 | 55 | 1014.7 |
| 20260505171523 | 71 | 288 | 2.0 | 5.0 | 0.00 | 0.20 | 0.15 | 52 | 1014.5 |
| 20260505170547 | 71 | 4 | 1.0 | 2.0 | 0.00 | 0.20 | 0.15 | 51 | 1014.6 |
| 20260505165525 | 70 | 102 | 1.0 | 5.0 | 0.00 | 0.20 | 0.15 | 56 | 1014.5 |
| 20260505164526 | 67 | 166 | 2.0 | 4.0 | 0.00 | 0.20 | 0.15 | 61 | 1014.7 |
| 20260505163527 | 64 | 285 | 3.0 | 6.0 | 0.00 | 0.20 | 0.15 | 65 | 1014.7 |
| 20260505162531 | 63 | 273 | 3.0 | 6.0 | 0.00 | 0.20 | 0.15 | 67 | 1014.7 |
| 20260505161531 | 64 | 283 | 2.0 | 3.0 | 0.00 | 0.20 | 0.15 | 67 | 1014.7 |
| 20260505160542 | 63 | 277 | 2.0 | 5.0 | 0.00 | 0.20 | 0.15 | 68 | 1014.6 |
| 20260505152527 | 61 | 308 | 2.0 | 3.0 | 0.00 | 0.20 | 0.15 | 79 | 1014.6 |
| 20260505151551 | 61 | 307 | 1.0 | 2.0 | 0.00 | 0.20 | 0.15 | 80 | 1014.5 |
| 20260505150552 | 61 | 337 | 1.0 | 3.0 | 0.00 | 0.20 | 0.15 | 81 | 1014.5 |
| 20260505140528 | 59 | 50 | 0.0 | 2.0 | 0.00 | 0.20 | 0.15 | 83 | 1014.0 |
| 20260505124530 | 57 | 59 | 1.0 | 2.0 | 0.00 | 0.20 | 0.15 | 90 | 1013.2 |
| 20260505123706 | 57 | 39 | 0.0 | 2.0 | 0.00 | 0.20 | 0.15 | 89 | 1013.2 |
| 20260505122529 | 57 | 57 | 1.0 | 3.0 | 0.01 | 0.20 | 0.15 | 88 | 1013.1 |
| 20260505121526 | 57 | 44 | 0.0 | 1.0 | 0.02 | 0.20 | 0.15 | 88 | 1013.3 |
| 20260505120530 | 57 | 68 | 2.0 | 3.0 | 0.02 | 0.20 | 0.15 | 89 | 1013.0 |
| 20260505115611 | 57 | 66 | 2.0 | 3.0 | 0.02 | 0.20 | 0.15 | 88 | 1012.8 |
| 20260505114530 | 57 | 64 | 1.0 | 2.0 | 0.02 | 0.20 | 0.15 | 88 | 1012.8 |
| 20260505113532 | 57 | 79 | 2.0 | 5.0 | 0.02 | 0.20 | 0.15 | 89 | 1012.7 |
| 20260505112541 | 57 | 72 | 2.0 | 4.0 | 0.01 | 0.19 | 0.14 | 88 | 1013.1 |
| 20260505111528 | 57 | 64 | 2.0 | 4.0 | 0.00 | 0.18 | 0.13 | 89 | 1013.3 |
| 20260505110524 | 57 | 85 | 1.0 | 3.0 | 0.00 | 0.18 | 0.13 | 90 | 1013.3 |
| 20260505101521 | 57 | 73 | 2.0 | 6.0 | 0.02 | 0.18 | 0.13 | 92 | 1014.1 |
| 20260505100525 | 57 | 102 | 1.0 | 4.0 | 0.02 | 0.18 | 0.13 | 92 | 1014.2 |
| 20260505095525 | 57 | 62 | 1.0 | 4.0 | 0.03 | 0.18 | 0.13 | 93 | 1014.4 |
| 20260505094527 | 57 | 95 | 1.0 | 2.0 | 0.04 | 0.18 | 0.13 | 93 | 1014.5 |
| 20260505093528 | 57 | 80 | 2.0 | 4.0 | 0.03 | 0.17 | 0.12 | 93 | 1014.5 |
| 20260505092531 | 57 | 79 | 1.0 | 2.0 | 0.03 | 0.16 | 0.11 | 93 | 1015.2 |
| 20260505091531 | 57 | 100 | 1.0 | 3.0 | 0.04 | 0.16 | 0.11 | 92 | 1015.1 |
| 20260505090543 | 57 | 123 | 2.0 | 3.0 | 0.05 | 0.16 | 0.11 | 92 | 1015.6 |
| 20260505085544 | 57 | 146 | 2.0 | 4.0 | 0.05 | 0.15 | 0.10 | 91 | 1016.0 |
| 20260505084524 | 57 | 126 | 1.0 | 2.0 | 0.05 | 0.14 | 0.09 | 91 | 1016.1 |
| 20260505083531 | 57 | 164 | 2.0 | 4.0 | 0.06 | 0.14 | 0.09 | 91 | 1016.5 |
| 20260505082527 | 57 | 0.0 | 0.0 | 0.06 | 0.13 | 0.08 | 90 | 1016.6 | |
| 20260505081551 | 58 | 0.0 | 1.0 | 0.06 | 0.12 | 0.07 | 90 | 1016.9 | |
| 20260505080614 | 58 | 204 | 0.0 | 3.0 | 0.05 | 0.11 | 0.06 | 89 | 1017.2 |
| 20260505075521 | 58 | 0.0 | 0.0 | 0.05 | 0.10 | 0.05 | 89 | 1017.3 | |
| 20260505074535 | 58 | 0.0 | 0.0 | 0.05 | 0.09 | 0.04 | 88 | 1017.3 | |
| 20260505073524 | 58 | 208 | 0.0 | 1.0 | 0.05 | 0.08 | 0.03 | 87 | 1017.3 |
| 20260505072528 | 58 | 148 | 0.0 | 2.0 | 0.04 | 0.07 | 0.02 | 86 | 1017.1 |
| 20260505071529 | 58 | 160 | 0.0 | 2.0 | 0.04 | 0.06 | 0.01 | 87 | 1017.2 |
| 20260505070529 | 58 | 0.0 | 0.0 | 0.04 | 0.06 | 0.01 | 87 | 1017.2 | |
| 20260505065532 | 58 | 0.0 | 0.0 | 0.03 | 0.05 | 0.05 | 85 | 1017.1 | |
| 20260505064544 | 58 | 0.0 | 0.0 | 0.02 | 0.04 | 0.04 | 84 | 1016.8 | |
| 20260505063523 | 58 | 0.0 | 0.0 | 0.02 | 0.03 | 0.03 | 83 | 1016.7 | |
| 20260505062527 | 58 | 0.0 | 0.0 | 0.03 | 0.03 | 0.03 | 82 | 1016.7 | |
| 20260505061526 | 58 | 0.0 | 0.0 | 0.02 | 0.02 | 0.02 | 81 | 1016.8 | |
| 20260505060529 | 59 | 0.0 | 0.0 | 0.02 | 0.02 | 0.02 | 80 | 1017.0 | |
| 20260505055533 | 59 | 0.0 | 0.0 | 0.02 | 0.02 | 0.02 | 80 | 1016.8 | |
| 20260505054541 | 59 | 0.0 | 0.0 | 0.02 | 0.02 | 0.02 | 77 | 1016.5 | |
| 20260505053522 | 59 | 0.0 | 0.0 | 0.01 | 0.01 | 0.01 | 76 | 1016.6 | |
| 20260505052523 | 59 | 0.0 | 0.0 | 0.00 | 0.00 | 0.00 | 74 | 1016.8 | |
| 20260505051534 | 58 | 0.0 | 0.0 | 0.00 | 0.00 | 0.00 | 72 | 1017.1 | |
| 20260505050526 | 58 | 0.0 | 1.0 | 0.00 | 0.00 | 0.00 | 73 | 1017.1 | |
| 20260505041522 | 59 | 357 | 0.0 | 1.0 | 0.00 | 0.00 | 0.00 | 74 | 1016.4 |
| 20260505040544 | 59 | 272 | 0.0 | 2.0 | 0.00 | 0.00 | 0.00 | 73 | 1016.7 |
| 20260505035526 | 59 | 293 | 0.0 | 2.0 | 0.00 | 0.00 | 0.00 | 73 | 1016.3 |
| 20260505034549 | 59 | 52 | 1.0 | 4.0 | 0.00 | 0.00 | 0.00 | 72 | 1016.0 |
| 20260505033528 | 59 | 82 | 2.0 | 5.0 | 0.00 | 0.00 | 0.00 | 71 | 1016.0 |
| 20260505032530 | 59 | 48 | 1.0 | 3.0 | 0.00 | 0.00 | 0.00 | 71 | 1016.0 |
| 20260505031521 | 59 | 133 | 0.0 | 2.0 | 0.00 | 0.00 | 0.00 | 70 | 1016.2 |
| 20260505030522 | 59 | 356 | 1.0 | 2.0 | 0.00 | 0.00 | 0.00 | 69 | 1016.2 |
| 20260505025527 | 59 | 302 | 2.0 | 5.0 | 0.00 | 0.00 | 0.00 | 70 | 1016.3 |
| 20260505024546 | 60 | 318 | 4.0 | 6.0 | 0.00 | 0.00 | 0.00 | 67 | 1016.2 |